CAPE
39 88 117 81 132 121 121 76 77 129 39 105 96 84 134 137 95 89 68 33 0 0 0 0 0 0 0 0 0 0 0 3 15 30 50 78 124 144
3 27 59 53 48 102 105 154 160 140 122 78 105 108 110 47 53 69 93 13 0 0 0 0 0 0 0 0 0 0 0 0 0 0 0 2 23 53
2 7 3 22 15 53 73 111 70 23 21 10 37 32 93 104 75 61 37 7 0 0 0 0 0 0 0 0 0 0 0 0 0 0 0 0 0 1
4 0 0 0 4 0 1 27 1 5 24 5 1 36 156 89 85 68 103 76 131 15 0 0 0 0 0 0 0 0 0 0 0 0 0 0 0 0
1 0 0 0 3 2 0 0 1 7 52 102 111 99 71 101 113 133 211 158 75 0 0 0 0 0 0 0 0 0 0 0 0 0 0 0 0 0
2 1 0 0 5 65 99 153 175 263 216 112 96 51 123 100 178 181 214 237 196 22 1 0 0 0 0 0 0 0 0 0 0 0 0 0 0 0
3 9 17 14 15 42 86 159 203 249 238 175 106 125 160 137 135 194 201 261 225 173 47 106 127 169 66 0 0 0 0 0 0 0 0 0 0 0
24 39 31 0 0 0 0 0 0 60 47 45 45 34 57 80 142 194 157 31 7 8 18 29 181 171 0 2 0 0 0 0 0 0 0 0 0 0
46 33 13 1 0 11 0 0 0 0 0 1 18 11 3 1 0 2 9 20 23 36 12 6 0 1 5 5 5 2 0 0 1 1 1 1 0 0
1 1 0 0 0 0 0 0 0 0 0 0 0 0 0 1 1 1 1 1 0 0 0 0 0 0 1 2 7 7 5 5 5 5 3 3 2 2
1 3 1 1 1 0 0 1 0 0 1 1 2 3 2 2 1 0 0 0 0 0 1 0 0 0 1 2 2 6 7 7 7 6 5 5 5 4
2 2 2 2 1 1 1 2 0 0 1 1 1 1 1 1 1 2 1 1 2 0 0 1 1 2 0 3 4 11 11 9 9 12 10 8 8 12
4 5 8 2 1 1 1 4 3 2 1 1 2 1 1 1 2 4 4 2 1 1 4 3 3 5 6 6 14 13 11 13 15 14 7 6 5 4
7 9 12 4 3 2 4 1 0 1 2 2 2 3 4 4 7 6 9 15 17 13 12 24 8 8 5 9 8 10 11 10 10 10 11 6 1 0
14 11 1 1 3 6 1 3 3 8 6 7 8 8 12 15 24 20 10 9 5 7 17 8 11 9 9 8 9 8 11 6 1 0 0 0 0 0
7 20 6 7 8 10 20 23 28 26 23 14 14 17 12 11 11 8 9 7 6 0 0 0 1 5 7 5 5 1 0 0 0 0 0 0 0 0
23 33 29 26 19 12 14 19 17 15 12 14 9 12 10 11 8 7 3 1 0 0 0 0 0 0 0 0 0 0 0 0 0 0 0 0 0 0
12 13 15 13 14 12 13 11 10 6 7 7 7 4 3 3 3 1 0 0 0 0 0 0 0 0 0 0 0 0 0 0 0 0 0 0 0 2
14 15 14 14 13 10 9 7 6 5 1 3 3 4 2 0 1 1 2 0 0 0 0 0 0 0 0 0 0 0 0 0 0 3 1 2 3 2
11 13 12 12 7 4 3 4 7 7 7 3 7 8 8 5 4 0 2 3 0 0 0 0 0 0 0 5 6 3 0 0 4 4 4 3 4 0
5 5 9 8 7 9 14 11 9 8 8 11 11 8 10 5 3 4 2 0 0 0 0 0 0 0 0 0 7 7 2 0 0 2 5 8 8 11
7 4 6 8 11 8 11 11 11 9 9 7 11 12 12 8 6 4 5 5 0 1 0 0 0 0 0 0 0 1 4 5 0 0 0 0 10 14
12 8 11 11 9 8 8 10 7 13 6 7 9 8 9 10 5 5 5 2 0 0 0 0 0 0 0 0 0 6 2 4 8 11 7 0 0 0
CIN
-0 0 0 -5 -4 -7 -0 -1 0 0 0 -0 -4 -48 -32 -31 -64 -88 -102 -115 0 0 0 0 0 0 0 0 0 0 0 -159 -131 -86 -58 -30 -12 -9
-1 0 -1 -2 -19 -17 -5 -0 -18 -2 0 0 -5 -0 -6 -19 -45 -59 -31 -109 0 0 0 0 0 0 0 0 0 0 0 0 0 0 -105 -70 -77 -39
-0 -10 -0 -4 -2 -19 -49 -34 -61 -91 -36 -40 -16 -32 -14 -0 -1 -25 -46 -86 0 0 0 0 0 0 0 0 0 0 0 0 0 0 0 0 0 -35
0 0 0 0 -33 0 -36 -47 -2 -94 -70 -32 -66 -19 -0 -5 -11 -21 -3 -3 -1 -37 0 0 0 0 0 0 0 0 0 0 0 0 0 0 0 0
-3 0 0 0 -26 -32 0 0 -10 -55 -16 -0 0 0 0 0 0 0 0 0 -1 0 0 0 0 0 0 0 0 0 0 0 0 0 0 0 0 0
-7 -14 0 0 -13 0 0 0 0 0 0 -0 0 0 0 0 0 0 0 0 0 -14 0 0 0 0 0 0 0 0 0 0 0 0 0 0 0 0
-8 -5 -1 -6 -8 -2 -1 -0 0 0 0 0 0 -0 -2 -1 -3 0 0 0 0 -1 -30 -15 -10 -7 -17 0 0 0 0 0 0 0 0 0 0 0
-1 -1 -1 -0 -0 0 0 0 -1 -23 -11 -1 -0 -1 -9 -5 0 0 0 -2 -1 -5 -2 -0 -0 -1 0 0 0 0 0 0 0 0 0 0 0 0
-74 -42 -28 -5 0 -1 -0 0 0 0 0 -1 -1 -1 -2 -2 -3 -2 -3 -1 -1 -0 -4 -2 0 0 0 0 0 0 0 0 0 0 0 0 0 0
-0 0 0 0 0 0 0 0 0 0 0 0 0 0 0 0 0 0 0 0 0 0 0 0 0 0 0 0 0 0 0 0 0 0 0 0 0 0
0 0 0 0 0 0 0 0 0 0 0 0 0 0 0 0 0 0 0 0 0 0 0 0 0 0 0 0 0 0 0 0 0 0 0 0 0 0
0 0 0 0 0 0 0 0 0 0 0 0 0 0 0 0 0 0 0 0 0 0 0 0 0 0 0 0 0 0 0 0 0 0 0 0 0 0
0 0 0 0 0 0 0 0 0 0 0 0 0 0 -0 -0 0 0 0 0 0 0 0 0 0 0 0 0 0 0 0 0 0 0 0 0 0 0
0 0 0 0 0 0 0 0 0 0 0 0 0 0 0 0 0 0 0 0 0 0 0 0 0 0 0 0 0 0 0 0 0 0 0 0 -0 0
0 0 0 0 0 0 0 0 -0 0 0 0 0 0 0 0 0 0 0 0 0 0 0 0 0 0 0 0 0 0 0 0 0 0 0 0 0 0
0 0 -0 -0 0 0 0 0 0 0 0 0 0 0 0 0 0 0 0 0 0 0 0 0 0 0 0 0 0 0 0 0 0 0 0 0 0 0
0 0 0 0 0 0 0 0 0 0 0 0 0 0 0 0 0 0 0 0 0 0 0 0 0 0 0 0 0 0 0 0 0 0 0 0 0 0
0 0 0 0 0 0 0 0 0 0 0 0 0 0 0 0 0 0 0 0 0 0 0 0 0 0 0 0 0 0 0 0 0 0 0 0 0 0
0 0 0 0 0 0 0 0 0 0 0 0 0 0 0 0 0 0 0 0 0 0 0 0 0 0 0 0 0 0 0 0 0 0 0 0 0 0
0 0 0 0 0 0 0 0 0 0 0 0 0 0 0 0 0 0 0 0 0 0 0 0 0 0 0 0 0 0 0 0 0 0 0 0 -0 -0
0 0 0 0 0 0 0 0 0 0 0 0 0 0 0 0 0 0 0 0 0 0 0 0 0 0 0 0 0 0 0 0 0 0 0 0 0 0
0 0 0 0 0 0 0 0 0 0 0 0 0 0 0 0 0 0 0 0 0 0 0 0 0 0 0 0 0 0 0 0 0 0 0 0 0 0
0 0 0 0 0 0 0 0 0 0 0 0 0 0 0 0 0 0 0 0 0 0 0 0 0 0 0 0 0 0 0 0 0 0 0 0 0 0
Wind_Speed
11 14 12 7 6 9 9 10 9 9 11 10 9 10 10 10 13 14 15 15 18 19 20 21 23 24 24 25 26 26 27 28 28 29 29 31 31 32
9 15 13 11 10 8 9 10 6 10 12 11 8 9 10 9 11 14 15 16 17 18 19 20 22 25 26 25 26 26 27 26 27 28 30 30 30 31
15 10 12 13 7 5 5 6 6 4 6 9 11 11 14 15 15 13 13 12 10 17 19 21 24 26 26 25 27 28 29 29 28 30 30 30 31 32
17 14 13 9 13 10 9 12 9 8 8 15 13 14 18 18 18 19 16 15 15 19 22 22 23 23 26 26 27 29 28 28 27 27 28 27 26 29
13 14 15 13 13 10 10 10 10 11 13 15 16 13 14 15 17 18 17 17 15 19 16 20 22 24 25 25 26 26 26 26 25 24 24 24 27 29
14 13 14 15 16 17 17 18 16 15 14 14 15 14 14 16 14 15 14 14 15 16 17 21 19 22 27 28 26 25 27 27 25 24 24 24 24 26
13 14 15 17 18 17 13 15 16 14 13 13 14 14 14 14 16 14 15 14 15 13 13 13 12 14 15 19 24 23 25 23 20 19 19 20 20 22
16 18 19 19 19 16 17 19 18 16 15 13 13 15 19 17 15 14 14 13 15 10 14 14 13 14 9 10 19 12 9 11 13 14 15 18 9 8
11 11 11 8 9 13 17 21 20 20 16 19 18 16 16 14 12 14 15 14 15 9 11 12 7 8 8 10 22 19 15 15 15 12 11 10 10 9
9 11 9 9 11 11 9 12 11 12 12 10 14 10 8 7 4 4 4 5 7 5 2 1 3 4 5 7 21 23 23 22 21 20 20 19 18 17
12 15 12 11 17 16 7 7 6 4 15 22 20 17 19 20 14 3 1 1 6 1 5 1 3 4 3 5 6 18 18 17 17 16 16 14 13 12
10 12 21 15 18 19 8 6 3 5 5 8 9 13 15 14 19 11 5 2 2 1 6 4 2 2 3 1 4 5 5 14 16 16 16 15 11 4
9 9 10 20 20 22 20 13 10 9 11 10 9 8 9 10 9 9 11 8 5 5 6 2 2 2 3 3 4 5 5 4 5 6 12 14 13 11
10 8 10 20 23 22 16 20 19 12 8 8 8 8 7 7 7 9 11 12 11 10 10 6 2 1 2 3 3 3 4 4 4 4 4 5 4 3
10 14 17 17 19 17 23 18 12 8 8 8 8 7 7 7 5 7 7 8 11 12 9 11 8 6 4 3 3 3 2 2 3 4 4 4 4 5
10 10 10 12 15 14 11 12 10 9 9 9 8 7 6 6 7 7 6 4 6 7 10 11 9 7 5 5 4 3 3 4 5 5 5 5 5 5
8 7 8 9 9 10 10 10 10 9 9 8 7 7 7 6 7 7 6 6 6 7 7 7 8 9 8 5 3 3 4 4 5 6 7 8 6 6
9 10 10 9 9 9 9 8 9 10 8 7 7 7 7 7 6 6 6 6 6 6 6 6 6 1 1 5 9 5 5 6 6 6 7 8 9 6
10 9 8 8 8 7 7 7 8 8 7 7 7 7 6 5 6 6 5 5 5 6 6 6 6 5 4 4 3 4 6 7 7 7 7 8 10 10
9 8 8 8 8 8 7 8 7 7 7 7 7 7 6 6 6 6 6 6 5 5 5 6 6 6 6 6 6 6 2 6 7 9 10 10 11 18
8 8 8 8 8 8 7 7 7 7 7 6 7 6 6 6 6 5 5 6 6 5 5 5 5 5 6 5 4 5 5 3 7 10 11 10 10 8
8 8 8 8 8 7 7 7 6 7 6 6 6 6 6 5 5 5 5 5 5 5 4 4 5 5 5 6 7 8 6 7 10 10 14 12 6 6
8 7 7 7 7 7 7 6 6 6 6 6 6 5 5 5 4 4 4 4 5 5 5 5 5 4 5 5 8 8 9 9 8 7 2 11 15 19
Wind_Direction
226 218 225 217 226 228 231 246 240 242 244 213 229 213 229 225 228 227 231 226 216 223 232 236 243 249 246 249 250 246 243 246 248 250 251 250 248 248
220 232 226 224 222 239 240 241 245 259 260 252 222 225 209 237 234 232 232 220 214 219 223 227 235 240 240 242 243 243 245 242 245 246 247 249 251 251
220 216 225 230 246 225 229 222 222 172 241 270 267 275 274 250 247 234 245 242 242 224 225 220 224 230 237 237 239 239 239 241 238 237 238 241 245 247
214 212 218 214 226 219 218 229 225 207 223 248 249 253 244 250 255 256 255 245 243 227 216 225 231 233 237 236 238 237 238 239 240 242 243 245 248 248
219 220 228 223 229 229 222 225 226 230 229 239 249 249 251 249 248 250 251 250 248 244 233 233 234 236 239 239 241 244 243 241 244 244 242 240 241 245
220 221 226 228 228 230 230 236 238 240 238 236 247 248 248 252 251 255 249 238 243 245 242 242 243 235 239 242 241 241 243 245 243 241 241 242 242 243
223 225 228 230 235 241 246 249 249 248 246 246 244 251 253 254 253 252 253 257 251 254 257 255 248 242 239 226 245 236 240 242 242 246 248 246 245 246
231 232 235 228 241 247 247 247 248 251 251 256 254 249 250 251 251 254 260 258 260 238 254 256 253 254 348 12 340 321 323 241 238 245 255 265 225 142
254 259 264 263 260 250 231 236 247 249 246 257 256 251 257 264 278 271 264 262 264 278 288 263 33 56 24 20 27 38 54 63 70 74 86 97 96 93
14 22 15 5 21 350 306 262 245 252 271 266 266 299 9 3 314 311 319 318 330 45 58 62 45 36 34 47 45 55 63 70 74 74 76 81 81 80
57 40 32 26 5 357 318 296 290 64 65 78 74 66 52 36 19 304 304 268 270 141 27 355 135 119 32 17 33 57 59 63 66 67 72 71 70 76
59 49 38 38 29 22 23 346 327 43 69 61 50 46 41 37 37 37 352 304 324 86 18 341 50 99 111 50 36 44 53 54 54 64 62 52 40 53
63 53 42 41 47 49 52 51 61 69 62 66 59 50 45 40 40 36 40 32 49 46 342 349 26 124 89 123 86 54 43 47 63 64 54 41 33 23
72 68 64 57 55 57 60 62 68 67 65 65 63 55 49 47 47 47 50 58 55 50 23 9 62 356 130 130 138 117 71 48 37 47 19 18 0 308
74 75 68 63 61 57 52 53 61 64 73 67 66 59 49 45 55 66 62 78 67 47 37 35 42 45 40 72 108 55 311 47 30 1 356 338 320 309
81 73 75 74 68 57 51 51 52 47 53 63 60 52 50 44 41 28 35 28 41 50 47 37 40 41 63 59 63 59 11 345 355 358 338 312 302 294
78 68 63 57 55 54 56 51 46 49 49 44 47 42 36 35 37 29 31 39 46 37 37 36 44 46 40 33 52 31 355 343 354 343 327 309 303 297
73 67 60 55 53 49 46 50 46 45 37 41 44 41 36 27 31 34 37 35 40 39 36 23 8 344 156 96 15 3 352 345 340 325 303 300 302 299
64 61 58 54 52 49 48 44 48 39 36 42 45 43 38 42 32 34 33 30 36 31 32 24 16 5 355 1 51 53 343 338 326 311 312 302 300 305
57 58 56 49 44 44 42 41 40 40 42 42 44 40 34 32 35 31 32 20 23 22 18 25 16 10 359 347 332 329 293 311 321 312 313 313 301 281
53 51 46 46 45 45 42 41 41 44 33 31 35 37 26 34 38 27 57 33 350 14 5 13 5 296 298 288 276 322 329 229 275 296 308 309 310 314
48 49 46 42 36 38 41 22 32 30 30 37 29 25 23 24 33 25 15 7 10 2 348 346 336 332 333 324 334 318 320 332 297 266 248 253 293 306
42 42 43 38 31 30 24 26 27 24 21 13 15 16 20 4 12 16 11 7 358 348 343 341 329 327 325 329 318 317 333 332 338 327 357 203 240 253